Погода в Шепетовке

Украина / Хмельницкая область     50°11′07″N   27°04′05″E
темп.,
°C
ветер,
м/с
пор.,
м/с
влажн.,
%
обл.,
%
осадки,
мм/ч
давл.,
гПа
погр.,
м
20 сентября, пн
пн2000:00+5зсз5893100 0.3 1010886
03:00+6з5996100 0.3 1010636
06:00+6зсз51097100 0.0 1011534
09:00+6зсз5996100 0.0 1012547
12:00+7зсз5893100 0.0 1013615
15:00+7зсз5890100 0.1 1014758
18:00+6зсз4892100 0.1 1015973
21:00+5зсз5892100 0.3 1016967
21 сентября, вт
вт2100:00+5зсз5889100 0.3 10171118
03:00+4зсз51094100 0.4 1017914
06:00+5зсз61092100 0.2 1017979
09:00+5сз61091100 0.3 10191002
12:00+6сз61084100 0.1 1019980
15:00+7сз61079100 0.1 10201110
18:00+6сз61082100 0.1 10211077
21:00+5сз61089100 0.1 1022934
22 сентября, ср
ср2200:00+6зсз51084100 0.0 1021818
03:00+6зсз51180100 0.1 10201102
06:00+6зсз51079100 0.1 10191010
09:00+6сз4984100 0.1 10181060
12:00+6сз4787100 0.3 10181022
15:00+6ссз4786100 0.6 10181082
18:00+6сз3894100 0.6 10181113
21:00+6сз4893100 1.1 1018919
23 сентября, чт
чт2300:00+5ссз4692100 0.2 1018863
03:00+5сз3595100 0.3 1018801
06:00+5сз4794100 0.2 1018837
09:00+5сз4695100 0.5 1018934
12:00+6сз3692100 0.1 1018695
15:00+8зсз4677100 0.3 1017916
18:00+8зсз357893 0.1 1016712
21:00+6юз118427 0.1 101612
24 сентября, пт
пт2400:00+6ю258595 0.0 1015118
03:00+7ю3884100 0.0 1013202
06:00+7ююз4991100 0.0 1011224
09:00+9ююз61571100 0.0 1009651
12:00+11юз71465100 0.1 10081021
15:00+12з61282100 1.3 10081193
18:00+12з6117343 0.2 1009938
21:00+8з31089100 0.3 1011250